Regional Weather Roundup
Issued by NWS

Home | Current Version | Previous Version | Text Only | Print | Product List | Glossary Off
Versions: 1 2 3 4 5 6 7 8 9 10 11 12 13 14 15 16 17 18 19 20 21 22 23 24 25 26 27 28 29 30 31 32 33 34 35 36 37 38 39 40 41 42 43 44 45 46 47 48 49 50

205
ASUS43 KOAX 120202
RWRNE

WEATHER ROUNDUP FOR NEBRASKA
NATIONAL WEATHER SERVICE OMAHA NE
800 PM CST MON DEC 11 2017

NOTES: SATELLITE DATA IS BEING USED TO AUGMENT CLOUD COVER ABOVE
       12000 FEET.
       "FAIR" INDICATES FEW OR NO CLOUDS BELOW 12,000 FEET WITH NO
       SIGNIFICANT WEATHER AND/OR OBSTRUCTIONS TO VISIBILITY.


NEZ001>004-019>022-054>056-120300-
NEBRASKA PANHANDLE

CITY           SKY/WX    TMP DP  RH WIND       PRES   REMARKS
SCOTTSBLUFF    CLEAR     33  13  43 NW9       30.41R WCI  25
ALLIANCE       CLEAR     26  15  63 NW9       30.39R WCI  17
CHADRON        CLEAR     24  15  68 CALM      30.41R
GORDON         FAIR      32  26  78 N12       30.38R WCI  23
KIMBALL        CLOUDY    33  11  40 NW8       30.41R WCI  27
SIDNEY         CLEAR     30  11  45 NW9       30.40R WCI  22
$$

NEZ057>060-069>072-079>082-120300-
SOUTHWEST NEBRASKA

CITY           SKY/WX    TMP DP  RH WIND       PRES   REMARKS
NORTH PLATTE   CLEAR     26  21  81 NW9       30.38R WCI  17
IMPERIAL       CLEAR     31  20  63 N8        30.39R WCI  23
LEXINGTON      CLEAR     33  26  73 NW9       30.35R WCI  26
MCCOOK         CLEAR     33  23  66 N7        30.38R WCI  27
OGALLALA       CLEAR     28  18  67 W5        30.39R WCI  22
$$

NEZ005>010-023>029-035>040-094-120300-
NORTH CENTRAL NEBRASKA

CITY           SKY/WX    TMP DP  RH WIND       PRES   REMARKS
VALENTINE      CLOUDY    39  28  64 NW13      30.36R WCI  31
AINSWORTH      CLOUDY    35  33  94 N13       30.35S WCI  26
BROKEN BOW     CLOUDY    38  31  76 N13       30.34R WCI  30
O`NEILL        MOCLDY    34  28  76 NW12G21   30.33R WCI  26
ORD            CLOUDY    37  33  85 N14G23    30.33R WCI  28
THEDFORD       CLOUDY    40  29  66 N12       30.36R WCI  32
$$

NEZ041-046>049-061>064-073>077-083>087-120300-
SOUTH CENTRAL NEBRASKA

CITY           SKY/WX    TMP DP  RH WIND       PRES   REMARKS
GRAND ISLAND   CLOUDY    39  31  72 N20G32    30.33R WCI  29
AURORA         CLOUDY    39  31  73 N22       30.32R WCI  28
HASTINGS       CLOUDY    40  29  64 N21       30.33R WCI  30
HEBRON         CLOUDY    42  32  66 N14G25    30.30R
HOLDREGE       PTCLDY    37  29  73 N8        30.34R WCI  31
KEARNEY        CLOUDY    38  29  70 N16       30.35R WCI  29
$$

NEZ011>018-030>034-042>045-120300-
NORTHEAST NEBRASKA

CITY           SKY/WX    TMP DP  RH WIND       PRES   REMARKS
NORFOLK        PTCLDY    32  28  85 N15       30.30R WCI  22
ALBION         PTCLDY    37  28  70 N13G23    30.31R WCI  29
BLAIR          CLEAR     33  21  60 NW24G32   30.23R WCI  21
COLUMBUS       MOCLDY    37  24  59 NW20      30.30R WCI  27
FREMONT        CLEAR     34  25  70 NW20G29   30.28R WCI  22
TEKAMAH        CLEAR     32  21  64 NW24      30.27R WCI  19
WAYNE          CLEAR     30  23  73 N16G25    30.29R WCI  19
$$

NEZ050>053-065>068-078-088>093-120300-
SOUTHEAST NEBRASKA

CITY           SKY/WX    TMP DP  RH WIND       PRES   REMARKS
LINCOLN        PTCLDY    38  30  73 N20       30.29R WCI  28
OMAHA EPPLEY   CLEAR     34  23  64 NW20G28   30.24R WCI  23
BEATRICE       MOCLDY    40  31  70 N20G28    30.27R WCI  30
FALLS CITY     PTCLDY    38  26  62 N13G25    30.21R WCI  30
NEBRASKA CITY  CLEAR     37  26  65 N23G39    30.23R WCI  25
PLATTSMOUTH    CLEAR     35  25  67 NW21G30   30.23R WCI  24
$$

NEZ044-045-051>053-067-120300-
OMAHA AREA

CITY           SKY/WX    TMP DP  RH WIND       PRES   REMARKS
OMAHA EPPLEY   CLEAR     34  23  64 NW20G28   30.24R WCI  23
BLAIR          CLEAR     33  21  60 NW24G32   30.23R WCI  21
FREMONT        CLEAR     34  25  70 NW20G29   30.28R WCI  22
MILLARD        CLEAR     37  27  68 NW14G22   30.26R WCI  28
OFFUTT AFB     CLEAR     35  24  62 NW17G25   30.24R WCI  25
PLATTSMOUTH    CLEAR     35  25  67 NW21G30   30.23R WCI  24
WAHOO          FAIR      34  27  74 NW15G22   30.27R WCI  24
$$




USA.gov is the U.S. government's official web portal to all federal, state and local government web resources and services.